Miscellaneous Local Product
Issued by NWS North Platte, NE

Home | Current Version | Previous Version | Text Only | Print | Product List | Glossary On
Versions: 1 2 3 4 5 6 7 8 9 10 11 12 13 14 15 16 17 18 19 20 21 22 23 24 25 26 27 28 29 30 31 32 33 34 35 36 37 38 39 40 41 42 43 44 45 46 47 48 49 50
211
AXUS43 KLBF 270610
MISLBF


WESTERN AND NORTH CENTRAL NEBRASKA HOURLY WEATHER ROUNDUP
NATIONAL WEATHER SERVICE NORTH PLATTE NE
100 AM CDT MON MAR 27 2017

NOTE: "FAIR" INDICATES FEW OR NO CLOUDS BELOW 12,000 FEET WITH NO
SIGNIFICANT WEATHER AND/OR OBSTRUCTIONS TO VISIBILITY.

NOTE: STATIONS NOT REPORTING VARIABLES SUCH AS SKY/WEATHER OR
PRESSURE ARE PROVIDED BY RAWS AND APRS NETWORKS AND ARE NOT UNDER
NATIONAL WEATHER SERVICE QUALITY CONTROL.

...OBSERVATIONS IN AND NEAR THE EASTERN PANHANDLE OF NEBRASKA...

CITY           SKY/WX    TMP DP  RH WIND       PRES   REMARKS
PINE RIDGE     CLOUDY    42  39  89 NW5       29.94F
CHADRON        MOCLDY    38  36  92 SW6       29.95S WCI  33
ALLIANCE       PTCLDY    29  29 100 W6        29.94S FOG     WCI  23
SIDNEY         CLEAR     32  30  92 N9        29.96F WCI  24
CRESCENT LAKE    N/A     40  38  92 N5          N/A
$$

...OBSERVATIONS IN NORTHERN NEBRASKA AND FAR SOUTHERN SOUTH DAKOTA...

CITY           SKY/WX    TMP DP  RH WIND       PRES   REMARKS
WINNER         CLOUDY    37  33  85 S7        29.96F WCI  32
VALENTINE      CLEAR     35  31  85 CALM      29.95F
THEDFORD       PTCLDY    40  39  96 NE5       29.96S
AINSWORTH      CLOUDY    39  39 100 CALM      29.96F
O`NEILL        CLOUDY    44  41  89 NW3       29.97R
ORD            CLOUDY    42  39  89 W3        29.95R
BROKEN BOW     CLEAR     42  40  92 N3        29.94S
HALSEY           N/A     40  40  99 CALM        N/A
BUTTE            N/A     36  35  95 CALM        N/A
CHAMBERS         N/A     43  40  89 CALM        N/A
EWING            N/A     43  41  93 CALM        N/A
$$

...OBSERVATIONS IN SOUTHWEST NEBRASKA AND FAR NORTHEAST COLORADO...

CITY           SKY/WX    TMP DP  RH WIND       PRES   REMARKS
WRAY           FAIR      37  36  93 W7        29.95R WCI  32
HOLYOKE        FAIR      43  37  81 NW9       29.94S
IMPERIAL       CLEAR     39  37  92 S3        29.93S
OGALLALA       CLEAR     44  39  83 N5        29.92R
NORTH PLATTE   CLOUDY    45  40  82 E7        29.93F
MCCOOK         MOCLDY    41  40  96 W5        29.94S
LEXINGTON      MOCLDY    39  38  94 N5        29.95S FOG
STAPLETON        N/A     41  39  93 CALM        N/A
GOTHENBURG       N/A     44  40  85 CALM        N/A
CALLAWAY         N/A     39  37  93 CALM        N/A
$$

...OBSERVATIONS IN CENTRAL LINCOLN COUNTY AREA...

CITY           SKY/WX    TMP DP  RH WIND       PRES   REMARKS
N.P. AIRPORT   CLOUDY    45  40  82 E7        29.93F
N.P. DOWNTOWN    N/A     46  41  83 CALM        N/A
N.P. SOUTHEAST   N/A     46  41  83 CALM        N/A
N.P. HILLCREST   N/A     44  40  87 E3          N/A
$$

...SOME OBSERVATIONS FROM AROUND THE REGION...

CITY           SKY/WX    TMP DP  RH WIND       PRES   REMARKS
DENVER         CLOUDY    41  35  79 NE3       29.98S
LIMON          CLEAR     28  28 100 CALM      29.98S
ASPEN          CLOUDY    32  24  72 SW7       30.02F WCI  26
LARAMIE        CLOUDY    31  30  96 SE9       29.95F WCI  23
CASPER         CLOUDY    37  31  78 CALM      29.89F
CHEYENNE       CLOUDY    35  31  85 SW5       29.97F WCI  31
SCOTTSBLUFF    CLOUDY    33  28  81 NE5       29.96S WCI  29
GRAND ISLAND   CLOUDY    44  44 100 NE6       29.93F FOG
OMAHA          CLOUDY    47  42  83 N7        29.93F
SIOUX FALLS    CLOUDY    43  39  86 CALM      29.95F
PIERRE         CLOUDY    41  39  93 CALM      29.95S
RAPID CITY     CLEAR     33  31  92 S3        29.94S FOG
BISMARCK       PTCLDY    37  33  85 E3        29.93S
KANSAS CITY    DRIZZLE   46  45  96 N9        29.91F
HILL CITY      CLOUDY    44  44 100 NW7       29.93R
WICHITA        CLOUDY    50  48  93 NE10      29.83R
DODGE CITY     CLOUDY    44  43  96 N9        29.93R
OKLAHOMA CITY  PTCLDY    53  50  89 NW22G30   29.75S
DALLAS         PTCLDY    72  63  73 S21       29.74F
AMARILLO       CLEAR     40  37  89 N16       29.95F WCI  31
$$




USA.gov is the U.S. government's official web portal to all federal, state and local government web resources and services.